Time,TemperatureF,DewpointF,PressureIn,WindDirection,WindDirectionDegrees,WindSpeedMPH,WindSpeedGustMPH,Humidity,HourlyPrecipIn,Conditions,Clouds,dailyrainin,SoftwareType,DateUTC
2013-06-18 00:01:00,56.5,56.5,28.09,NW,309,0.0,0.0,100,0.00,,,9.64,WUHU216DAVISWMX,2013-06-18 04:01:00,
2013-06-18 00:06:00,56.3,56.3,28.08,NW,309,0.0,0.0,100,0.00,,,9.64,WUHU216DAVISWMX,2013-06-18 04:06:00,
2013-06-18 00:11:00,56.4,56.4,28.08,NW,309,0.0,0.0,100,0.00,,,9.64,WUHU216DAVISWMX,2013-06-18 04:11:00,
2013-06-18 00:16:00,56.1,56.1,28.08,NW,309,0.0,0.0,100,0.00,,,9.64,WUHU216DAVISWMX,2013-06-18 04:16:00,
2013-06-18 00:21:00,55.9,55.9,28.08,NW,309,0.0,1.0,100,0.00,,,9.64,WUHU216DAVISWMX,2013-06-18 04:21:00,
2013-06-18 00:26:00,56.0,56.0,28.09,NW,309,0.0,1.0,100,0.00,,,9.64,WUHU216DAVISWMX,2013-06-18 04:26:00,
2013-06-18 00:31:00,56.0,56.0,28.08,NW,309,0.0,0.0,100,0.00,,,9.64,WUHU216DAVISWMX,2013-06-18 04:31:00,
2013-06-18 00:36:00,55.9,55.9,28.08,NW,309,0.0,0.0,100,0.00,,,9.64,WUHU216DAVISWMX,2013-06-18 04:36:00,
2013-06-18 00:41:00,55.9,55.9,28.08,NW,309,0.0,0.0,100,0.00,,,9.64,WUHU216DAVISWMX,2013-06-18 04:41:00,
2013-06-18 00:46:00,55.9,55.9,28.08,NW,309,0.0,0.0,100,0.00,,,9.64,WUHU216DAVISWMX,2013-06-18 04:46:00,
2013-06-18 00:51:00,55.9,55.9,28.08,NW,309,0.0,0.0,100,0.00,,,9.64,WUHU216DAVISWMX,2013-06-18 04:51:00,
2013-06-18 00:56:00,55.9,55.9,28.07,NW,309,0.0,0.0,100,0.00,,,9.64,WUHU216DAVISWMX,2013-06-18 04:56:00,
2013-06-18 01:01:00,55.9,55.9,28.07,NW,309,0.0,0.0,100,0.00,,,9.64,WUHU216DAVISWMX,2013-06-18 05:01:00,
2013-06-18 01:07:00,55.8,55.8,28.07,NW,309,0.0,0.0,100,0.00,,,9.64,WUHU216DAVISWMX,2013-06-18 05:07:00,
2013-06-18 01:12:00,55.6,55.6,28.07,NW,309,0.0,0.0,100,0.00,,,9.64,WUHU216DAVISWMX,2013-06-18 05:12:00,
2013-06-18 01:16:00,55.5,55.5,28.07,NW,309,0.0,0.0,100,0.00,,,9.64,WUHU216DAVISWMX,2013-06-18 05:16:00,
2013-06-18 01:21:00,55.5,55.5,28.07,NW,309,0.0,0.0,100,0.00,,,9.64,WUHU216DAVISWMX,2013-06-18 05:21:00,
2013-06-18 01:27:00,55.4,55.4,28.06,NW,309,2.0,2.0,100,0.00,,,9.64,WUHU216DAVISWMX,2013-06-18 05:27:00,
2013-06-18 01:32:00,55.4,55.4,28.06,NW,309,0.0,2.0,100,0.00,,,9.64,WUHU216DAVISWMX,2013-06-18 05:32:00,
2013-06-18 01:37:00,55.4,55.4,28.06,NW,309,0.0,2.0,100,0.00,,,9.64,WUHU216DAVISWMX,2013-06-18 05:37:00,
2013-06-18 01:42:00,55.4,55.4,28.06,NW,309,0.0,0.0,100,0.00,,,9.64,WUHU216DAVISWMX,2013-06-18 05:42:00,
2013-06-18 01:49:00,55.0,55.0,28.06,NW,309,0.0,0.0,100,0.00,,,9.64,WUHU216DAVISWMX,2013-06-18 05:49:00,
2013-06-18 01:54:00,55.0,55.0,28.05,NW,309,0.0,1.0,100,0.00,,,9.64,WUHU216DAVISWMX,2013-06-18 05:54:00,
2013-06-18 01:59:00,54.9,54.9,28.05,NW,309,0.0,1.0,100,0.00,,,9.64,WUHU216DAVISWMX,2013-06-18 05:59:00,
2013-06-18 02:04:00,54.9,54.9,28.05,NW,309,0.0,0.0,100,0.00,,,9.64,WUHU216DAVISWMX,2013-06-18 06:04:00,
2013-06-18 02:09:00,54.9,54.9,28.05,NW,309,0.0,0.0,100,0.00,,,9.64,WUHU216DAVISWMX,2013-06-18 06:09:00,
2013-06-18 02:14:00,54.8,54.8,28.05,NW,309,0.0,0.0,100,0.00,,,9.64,WUHU216DAVISWMX,2013-06-18 06:14:00,
2013-06-18 02:19:00,54.7,54.7,28.05,NW,309,0.0,0.0,100,0.00,,,9.64,WUHU216DAVISWMX,2013-06-18 06:19:00,
2013-06-18 02:24:00,54.8,54.8,28.05,NW,309,0.0,0.0,100,0.00,,,9.64,WUHU216DAVISWMX,2013-06-18 06:24:00,
2013-06-18 02:29:00,54.7,54.7,28.04,NW,309,0.0,0.0,100,0.00,,,9.64,WUHU216DAVISWMX,2013-06-18 06:29:00,
2013-06-18 02:34:00,54.7,54.7,28.04,NW,309,0.0,0.0,100,0.00,,,9.64,WUHU216DAVISWMX,2013-06-18 06:34:00,
2013-06-18 02:39:00,54.6,54.6,28.04,NW,309,0.0,0.0,100,0.00,,,9.64,WUHU216DAVISWMX,2013-06-18 06:39:00,
2013-06-18 02:44:00,54.6,54.6,28.04,NW,309,0.0,0.0,100,0.00,,,9.64,WUHU216DAVISWMX,2013-06-18 06:44:00,
2013-06-18 02:49:00,54.5,54.5,28.04,NW,309,0.0,0.0,100,0.00,,,9.64,WUHU216DAVISWMX,2013-06-18 06:49:00,
2013-06-18 02:54:00,54.4,54.4,28.04,NW,309,0.0,0.0,100,0.00,,,9.64,WUHU216DAVISWMX,2013-06-18 06:54:00,
2013-06-18 02:59:00,54.4,54.4,28.03,NW,309,0.0,0.0,100,0.00,,,9.64,WUHU216DAVISWMX,2013-06-18 06:59:00,
2013-06-18 03:04:00,54.4,54.1,28.03,NW,309,0.0,0.0,99,0.00,,,9.64,WUHU216DAVISWMX,2013-06-18 07:04:00,
2013-06-18 03:09:00,54.2,53.9,28.03,NW,309,0.0,0.0,99,0.00,,,9.64,WUHU216DAVISWMX,2013-06-18 07:09:00,
2013-06-18 03:14:00,54.1,53.8,28.03,NW,309,0.0,0.0,99,0.00,,,9.64,WUHU216DAVISWMX,2013-06-18 07:14:00,
2013-06-18 03:19:00,54.1,53.8,28.03,NW,309,0.0,0.0,99,0.00,,,9.64,WUHU216DAVISWMX,2013-06-18 07:19:00,
2013-06-18 03:24:00,54.1,53.8,28.03,NW,309,0.0,0.0,99,0.00,,,9.64,WUHU216DAVISWMX,2013-06-18 07:24:00,
2013-06-18 03:29:00,54.2,53.9,28.03,NW,309,0.0,0.0,99,0.00,,,9.64,WUHU216DAVISWMX,2013-06-18 07:29:00,
2013-06-18 03:34:00,54.2,53.9,28.03,NW,309,0.0,0.0,99,0.00,,,9.64,WUHU216DAVISWMX,2013-06-18 07:34:00,
2013-06-18 03:39:00,54.1,53.8,28.03,NW,309,0.0,0.0,99,0.00,,,9.64,WUHU216DAVISWMX,2013-06-18 07:39:00,
2013-06-18 03:44:00,54.1,54.1,28.03,NW,309,0.0,0.0,100,0.00,,,9.64,WUHU216DAVISWMX,2013-06-18 07:44:00,
2013-06-18 03:49:00,54.1,54.1,28.03,NW,309,0.0,0.0,100,0.00,,,9.64,WUHU216DAVISWMX,2013-06-18 07:49:00,
2013-06-18 03:54:00,54.2,54.2,28.03,NW,309,0.0,0.0,100,0.00,,,9.64,WUHU216DAVISWMX,2013-06-18 07:54:00,
2013-06-18 03:59:00,54.2,54.2,28.03,NW,309,0.0,0.0,100,0.00,,,9.64,WUHU216DAVISWMX,2013-06-18 07:59:00,
2013-06-18 04:04:00,54.1,54.1,28.03,NW,309,0.0,0.0,100,0.00,,,9.64,WUHU216DAVISWMX,2013-06-18 08:04:00,
2013-06-18 04:09:00,53.9,53.9,28.03,NW,309,0.0,1.0,100,0.00,,,9.64,WUHU216DAVISWMX,2013-06-18 08:09:00,
2013-06-18 04:14:00,53.9,53.9,28.03,NW,309,0.0,1.0,100,0.00,,,9.64,WUHU216DAVISWMX,2013-06-18 08:14:00,
2013-06-18 04:19:00,53.9,53.9,28.03,NW,309,0.0,0.0,100,0.00,,,9.64,WUHU216DAVISWMX,2013-06-18 08:19:00,
2013-06-18 04:24:00,53.8,53.5,28.03,NW,309,0.0,0.0,99,0.00,,,9.64,WUHU216DAVISWMX,2013-06-18 08:24:00,
2013-06-18 04:29:00,53.8,53.8,28.02,NW,309,0.0,0.0,100,0.00,,,9.64,WUHU216DAVISWMX,2013-06-18 08:29:00,
2013-06-18 04:34:00,53.8,53.5,28.02,NW,309,0.0,0.0,99,0.00,,,9.64,WUHU216DAVISWMX,2013-06-18 08:34:00,
2013-06-18 04:39:00,53.8,53.8,28.02,NW,309,0.0,0.0,100,0.00,,,9.64,WUHU216DAVISWMX,2013-06-18 08:39:00,
2013-06-18 04:44:00,53.8,53.8,28.03,NW,309,0.0,0.0,100,0.00,,,9.64,WUHU216DAVISWMX,2013-06-18 08:44:00,
2013-06-18 04:49:00,53.7,53.7,28.02,NW,309,0.0,0.0,100,0.00,,,9.64,WUHU216DAVISWMX,2013-06-18 08:49:00,
2013-06-18 04:54:00,53.8,53.8,28.02,NW,309,0.0,0.0,100,0.00,,,9.64,WUHU216DAVISWMX,2013-06-18 08:54:00,
2013-06-18 04:59:00,53.7,53.7,28.03,NW,309,0.0,0.0,100,0.00,,,9.64,WUHU216DAVISWMX,2013-06-18 08:59:00,
2013-06-18 05:04:00,53.7,53.7,28.03,NW,309,0.0,0.0,100,0.00,,,9.64,WUHU216DAVISWMX,2013-06-18 09:04:00,
2013-06-18 05:09:00,53.7,53.7,28.03,NW,309,0.0,0.0,100,0.00,,,9.64,WUHU216DAVISWMX,2013-06-18 09:09:00,
2013-06-18 05:14:00,53.5,53.5,28.03,NW,309,0.0,0.0,100,0.00,,,9.64,WUHU216DAVISWMX,2013-06-18 09:14:00,
2013-06-18 05:19:00,53.5,53.5,28.03,NW,309,0.0,0.0,100,0.00,,,9.64,WUHU216DAVISWMX,2013-06-18 09:19:00,
2013-06-18 05:24:00,53.7,53.7,28.03,NW,309,0.0,0.0,100,0.00,,,9.64,WUHU216DAVISWMX,2013-06-18 09:24:00,
2013-06-18 05:29:00,53.6,53.6,28.04,NW,309,0.0,0.0,100,0.00,,,9.64,WUHU216DAVISWMX,2013-06-18 09:29:00,
2013-06-18 05:34:00,53.6,53.6,28.04,NW,309,0.0,0.0,100,0.00,,,9.64,WUHU216DAVISWMX,2013-06-18 09:34:00,
2013-06-18 05:39:00,53.6,53.6,28.04,NW,309,0.0,0.0,100,0.00,,,9.64,WUHU216DAVISWMX,2013-06-18 09:39:00,
2013-06-18 05:44:00,53.6,53.6,28.04,NW,309,0.0,0.0,100,0.00,,,9.64,WUHU216DAVISWMX,2013-06-18 09:44:00,
2013-06-18 05:49:00,53.6,53.6,28.04,NW,309,0.0,0.0,100,0.00,,,9.64,WUHU216DAVISWMX,2013-06-18 09:49:00,
2013-06-18 05:54:00,53.5,53.5,28.04,NW,309,0.0,0.0,100,0.00,,,9.64,WUHU216DAVISWMX,2013-06-18 09:54:00,
2013-06-18 05:59:00,53.5,53.5,28.04,NW,309,0.0,0.0,100,0.00,,,9.64,WUHU216DAVISWMX,2013-06-18 09:59:00,
2013-06-18 06:04:00,53.6,53.6,28.04,NW,309,0.0,0.0,100,0.00,,,9.64,WUHU216DAVISWMX,2013-06-18 10:04:00,
2013-06-18 06:09:00,53.6,53.6,28.04,NW,309,0.0,0.0,100,0.00,,,9.64,WUHU216DAVISWMX,2013-06-18 10:09:00,
2013-06-18 09:03:00,57.7,57.7,28.04,NW,325,0.0,0.0,100,0.00,,,9.64,WUHU216DAVISWMX,2013-06-18 13:03:00,
2013-06-18 09:08:00,57.7,57.7,28.04,NW,325,0.0,0.0,100,0.00,,,9.64,WUHU216DAVISWMX,2013-06-18 13:08:00,
2013-06-18 09:13:00,58.1,58.1,28.04,NW,325,0.0,0.0,100,0.00,,,9.64,WUHU216DAVISWMX,2013-06-18 13:13:00,
2013-06-18 09:18:00,58.4,58.4,28.04,NW,325,0.0,1.0,100,0.00,,,9.64,WUHU216DAVISWMX,2013-06-18 13:18:00,
2013-06-18 09:23:00,58.5,58.2,28.04,NW,325,0.0,1.0,99,0.00,,,9.64,WUHU216DAVISWMX,2013-06-18 13:23:00,
2013-06-18 09:28:00,58.6,58.0,28.04,NW,325,0.0,1.0,98,0.00,,,9.64,WUHU216DAVISWMX,2013-06-18 13:28:00,
2013-06-18 09:33:00,58.8,58.2,28.04,NW,325,0.0,1.0,98,0.00,,,9.64,WUHU216DAVISWMX,2013-06-18 13:33:00,
2013-06-18 09:38:00,59.0,58.4,28.04,NW,325,0.0,0.0,98,0.00,,,9.64,WUHU216DAVISWMX,2013-06-18 13:38:00,
2013-06-18 09:43:00,59.1,58.2,28.03,NW,325,0.0,0.0,97,0.00,,,9.64,WUHU216DAVISWMX,2013-06-18 13:43:00,
2013-06-18 09:48:00,59.4,58.5,28.03,NW,325,0.0,0.0,97,0.00,,,9.64,WUHU216DAVISWMX,2013-06-18 13:48:00,
2013-06-18 09:53:00,59.8,58.6,28.03,NW,325,0.0,0.0,96,0.00,,,9.64,WUHU216DAVISWMX,2013-06-18 13:53:00,
2013-06-18 09:58:00,60.2,58.7,28.03,NW,325,0.0,0.0,95,0.00,,,9.64,WUHU216DAVISWMX,2013-06-18 13:58:00,
2013-06-18 10:03:00,60.4,58.6,28.03,NW,325,0.0,0.0,94,0.00,,,9.64,WUHU216DAVISWMX,2013-06-18 14:03:00,
2013-06-18 10:08:00,60.7,58.0,28.03,NW,325,0.0,0.0,91,0.00,,,9.64,WUHU216DAVISWMX,2013-06-18 14:08:00,
2013-06-18 10:13:00,60.8,57.5,28.03,NW,325,0.0,0.0,89,0.00,,,9.64,WUHU216DAVISWMX,2013-06-18 14:13:00,
2013-06-18 10:18:00,61.1,57.2,28.03,NW,325,0.0,0.0,87,0.00,,,9.64,WUHU216DAVISWMX,2013-06-18 14:18:00,
2013-06-18 10:23:00,61.4,57.2,28.03,NW,325,0.0,1.0,86,0.00,,,9.64,WUHU216DAVISWMX,2013-06-18 14:23:00,
2013-06-18 10:28:00,61.2,57.0,28.03,NW,325,0.0,3.0,86,0.00,,,9.64,WUHU216DAVISWMX,2013-06-18 14:28:00,
2013-06-18 10:33:00,61.3,57.1,28.03,NW,325,0.0,3.0,86,0.00,,,9.64,WUHU216DAVISWMX,2013-06-18 14:33:00,
2013-06-18 10:38:00,61.4,57.2,28.02,NW,325,0.0,1.0,86,0.00,,,9.64,WUHU216DAVISWMX,2013-06-18 14:38:00,
2013-06-18 10:43:00,61.6,57.1,28.02,NW,325,0.0,1.0,85,0.00,,,9.64,WUHU216DAVISWMX,2013-06-18 14:43:00,
2013-06-18 10:48:00,61.7,57.2,28.03,NW,325,0.0,1.0,85,0.00,,,9.64,WUHU216DAVISWMX,2013-06-18 14:48:00,
2013-06-18 10:53:00,61.7,56.8,28.02,NW,325,1.0,3.0,84,0.00,,,9.64,WUHU216DAVISWMX,2013-06-18 14:53:00,
2013-06-18 10:58:00,61.6,56.7,28.02,NE,39,0.0,4.0,84,0.00,,,9.64,WUHU216DAVISWMX,2013-06-18 14:58:00,
2013-06-18 11:03:00,61.4,57.2,28.02,NE,39,0.0,4.0,86,0.00,,,9.64,WUHU216DAVISWMX,2013-06-18 15:03:00,
2013-06-18 11:08:00,61.9,57.7,28.02,NE,38,0.0,4.0,86,0.00,,,9.64,WUHU216DAVISWMX,2013-06-18 15:08:00,
2013-06-18 11:13:00,61.9,57.7,28.02,NE,38,0.0,1.0,86,0.00,,,9.64,WUHU216DAVISWMX,2013-06-18 15:13:00,
2013-06-18 11:18:00,61.6,57.7,28.02,NE,38,0.0,1.0,87,0.00,,,9.64,WUHU216DAVISWMX,2013-06-18 15:18:00,
2013-06-18 11:23:00,61.7,58.1,28.02,NE,39,0.0,0.0,88,0.00,,,9.64,WUHU216DAVISWMX,2013-06-18 15:23:00,
2013-06-18 11:28:00,62.1,58.5,28.02,NE,38,0.0,3.0,88,0.00,,,9.64,WUHU216DAVISWMX,2013-06-18 15:28:00,
2013-06-18 11:33:00,62.1,58.2,28.03,NE,38,0.0,3.0,87,0.00,,,9.64,WUHU216DAVISWMX,2013-06-18 15:33:00,
2013-06-18 11:38:00,62.2,58.0,28.03,NE,39,0.0,3.0,86,0.00,,,9.64,WUHU216DAVISWMX,2013-06-18 15:38:00,
2013-06-18 11:43:00,62.4,58.2,28.03,NE,39,0.0,0.0,86,0.00,,,9.64,WUHU216DAVISWMX,2013-06-18 15:43:00,
2013-06-18 11:48:00,62.3,58.1,28.03,NE,40,0.0,0.0,86,0.00,,,9.64,WUHU216DAVISWMX,2013-06-18 15:48:00,
2013-06-18 11:53:00,62.2,58.0,28.03,NE,40,0.0,0.0,86,0.00,,,9.64,WUHU216DAVISWMX,2013-06-18 15:53:00,
2013-06-18 11:58:00,62.5,58.3,28.03,NE,39,0.0,0.0,86,0.00,,,9.64,WUHU216DAVISWMX,2013-06-18 15:58:00,
2013-06-18 12:03:00,62.5,58.3,28.03,NNE,33,0.0,4.0,86,0.00,,,9.64,WUHU216DAVISWMX,2013-06-18 16:03:00,
2013-06-18 12:08:00,62.7,58.5,28.02,NNE,32,0.0,4.0,86,0.00,,,9.64,WUHU216DAVISWMX,2013-06-18 16:08:00,
2013-06-18 12:13:00,62.9,58.7,28.02,NNE,32,0.0,1.0,86,0.00,,,9.64,WUHU216DAVISWMX,2013-06-18 16:13:00,
2013-06-18 12:18:00,63.1,59.2,28.02,NNE,33,0.0,0.0,87,0.00,,,9.64,WUHU216DAVISWMX,2013-06-18 16:18:00,
2013-06-18 12:23:00,62.8,58.6,28.01,SE,135,5.0,7.0,86,0.00,,,9.64,WUHU216DAVISWMX,2013-06-18 16:23:00,
2013-06-18 12:28:00,62.3,58.4,28.00,SE,129,5.0,9.0,87,0.00,,,9.64,WUHU216DAVISWMX,2013-06-18 16:28:00,
2013-06-18 12:33:00,62.1,58.5,28.01,SSW,192,0.0,9.0,88,0.00,,,9.64,WUHU216DAVISWMX,2013-06-18 16:33:00,
2013-06-18 12:38:00,62.5,58.6,28.02,NNW,336,3.0,5.0,87,0.00,,,9.64,WUHU216DAVISWMX,2013-06-18 16:38:00,
2013-06-18 12:43:00,62.8,58.6,28.02,NW,312,0.0,6.0,86,0.00,,,9.64,WUHU216DAVISWMX,2013-06-18 16:43:00,
2013-06-18 12:48:00,63.1,58.5,28.02,WNW,295,0.0,6.0,85,0.00,,,9.64,WUHU216DAVISWMX,2013-06-18 16:48:00,
2013-06-18 12:53:00,63.0,58.4,28.02,WNW,290,0.0,8.0,85,0.00,,,9.64,WUHU216DAVISWMX,2013-06-18 16:53:00,
2013-06-18 12:58:00,62.8,58.2,28.02,WNW,290,0.0,8.0,85,0.00,,,9.64,WUHU216DAVISWMX,2013-06-18 16:58:00,
2013-06-18 13:03:00,63.2,58.6,28.02,WNW,301,0.0,5.0,85,0.00,,,9.64,WUHU216DAVISWMX,2013-06-18 17:03:00,
2013-06-18 13:08:00,63.4,58.8,28.02,NW,307,0.0,8.0,85,0.00,,,9.64,WUHU216DAVISWMX,2013-06-18 17:08:00,
2013-06-18 13:13:00,63.4,58.5,28.02,NW,324,0.0,8.0,84,0.00,,,9.64,WUHU216DAVISWMX,2013-06-18 17:13:00,
2013-06-18 13:18:00,63.4,58.5,28.02,NW,325,0.0,5.0,84,0.00,,,9.64,WUHU216DAVISWMX,2013-06-18 17:18:00,
2013-06-18 13:23:00,63.6,58.4,28.02,NW,321,3.0,5.0,83,0.00,,,9.64,WUHU216DAVISWMX,2013-06-18 17:23:00,
2013-06-18 13:28:00,63.4,57.9,28.02,WNW,290,0.0,5.0,82,0.00,,,9.64,WUHU216DAVISWMX,2013-06-18 17:28:00,
2013-06-18 13:33:00,63.6,58.0,28.01,SW,218,5.0,5.0,82,0.00,,,9.64,WUHU216DAVISWMX,2013-06-18 17:33:00,
2013-06-18 13:38:00,63.7,58.1,28.02,SW,221,0.0,5.0,82,0.00,,,9.64,WUHU216DAVISWMX,2013-06-18 17:38:00,
2013-06-18 13:43:00,63.9,58.3,28.02,SW,226,0.0,5.0,82,0.00,,,9.64,WUHU216DAVISWMX,2013-06-18 17:43:00,
2013-06-18 13:48:00,64.1,58.9,28.02,SW,227,2.0,2.0,83,0.00,,,9.64,WUHU216DAVISWMX,2013-06-18 17:48:00,
2013-06-18 13:53:00,64.1,58.2,28.02,WSW,243,0.0,3.0,81,0.00,,,9.64,WUHU216DAVISWMX,2013-06-18 17:53:00,
2013-06-18 13:58:00,64.4,58.5,28.02,WSW,242,0.0,3.0,81,0.00,,,9.64,WUHU216DAVISWMX,2013-06-18 17:58:00,
2013-06-18 14:03:00,64.2,57.6,28.01,West,269,0.0,5.0,79,0.00,,,9.64,WUHU216DAVISWMX,2013-06-18 18:03:00,
2013-06-18 14:08:00,64.4,57.8,28.01,West,269,0.0,5.0,79,0.00,,,9.64,WUHU216DAVISWMX,2013-06-18 18:08:00,
2013-06-18 14:13:00,64.3,57.7,28.01,West,269,0.0,4.0,79,0.00,,,9.64,WUHU216DAVISWMX,2013-06-18 18:13:00,
2013-06-18 14:18:00,62.6,56.4,28.01,West,271,0.0,4.0,80,0.00,,,9.64,WUHU216DAVISWMX,2013-06-18 18:18:00,
2013-06-18 14:23:00,63.0,56.8,28.01,West,266,0.0,3.0,80,0.00,,,9.64,WUHU216DAVISWMX,2013-06-18 18:23:00,
2013-06-18 14:28:00,62.7,56.2,28.01,West,265,0.0,3.0,79,0.00,,,9.64,WUHU216DAVISWMX,2013-06-18 18:28:00,
2013-06-18 14:33:00,62.4,55.5,28.01,SW,221,0.0,4.0,78,0.00,,,9.64,WUHU216DAVISWMX,2013-06-18 18:33:00,
2013-06-18 14:38:00,63.1,55.9,28.01,SW,220,0.0,4.0,77,0.00,,,9.64,WUHU216DAVISWMX,2013-06-18 18:38:00,
2013-06-18 14:43:00,62.7,55.1,28.00,WNW,292,0.0,5.0,76,0.00,,,9.64,WUHU216DAVISWMX,2013-06-18 18:43:00,
2013-06-18 14:48:00,63.1,55.9,28.00,WNW,292,0.0,5.0,77,0.00,,,9.64,WUHU216DAVISWMX,2013-06-18 18:48:00,
2013-06-18 14:53:00,63.1,55.9,28.00,WNW,292,0.0,1.0,77,0.00,,,9.64,WUHU216DAVISWMX,2013-06-18 18:53:00,
2013-06-18 14:58:00,63.2,55.6,28.00,WNW,292,0.0,5.0,76,0.00,,,9.64,WUHU216DAVISWMX,2013-06-18 18:58:00,
2013-06-18 15:03:00,62.8,55.6,28.00,WNW,296,5.0,6.0,77,0.00,,,9.64,WUHU216DAVISWMX,2013-06-18 19:03:00,
2013-06-18 15:08:00,62.3,55.4,27.99,WNW,290,1.0,6.0,78,0.00,,,9.64,WUHU216DAVISWMX,2013-06-18 19:08:00,
2013-06-18 15:13:00,62.3,55.8,27.99,WNW,295,0.0,5.0,79,0.00,,,9.64,WUHU216DAVISWMX,2013-06-18 19:13:00,
2013-06-18 15:18:00,62.4,55.9,27.98,West,275,0.0,5.0,79,0.00,,,9.64,WUHU216DAVISWMX,2013-06-18 19:18:00,
2013-06-18 15:23:00,62.8,56.3,27.98,WNW,297,0.0,6.0,79,0.00,,,9.64,WUHU216DAVISWMX,2013-06-18 19:23:00,
2013-06-18 15:28:00,62.9,56.0,27.99,WNW,290,0.0,6.0,78,0.00,,,9.64,WUHU216DAVISWMX,2013-06-18 19:28:00,
2013-06-18 15:33:00,62.3,55.8,27.98,WNW,290,0.0,6.0,79,0.00,,,9.64,WUHU216DAVISWMX,2013-06-18 19:33:00,
2013-06-18 15:38:00,62.2,55.0,27.98,WNW,295,7.0,9.0,77,0.00,,,9.64,WUHU216DAVISWMX,2013-06-18 19:38:00,
2013-06-18 15:43:00,64.0,56.0,27.98,WNW,282,7.0,9.0,75,0.00,,,9.64,WUHU216DAVISWMX,2013-06-18 19:43:00,
2013-06-18 15:48:00,63.3,55.0,27.98,WNW,299,0.0,9.0,74,0.00,,,9.64,WUHU216DAVISWMX,2013-06-18 19:48:00,
2013-06-18 15:53:00,63.0,54.7,27.98,WNW,301,0.0,8.0,74,0.00,,,9.64,WUHU216DAVISWMX,2013-06-18 19:53:00,
2013-06-18 15:58:00,63.5,54.4,27.98,WNW,294,0.0,6.0,72,0.00,,,9.64,WUHU216DAVISWMX,2013-06-18 19:58:00,
2013-06-18 16:03:00,63.5,56.3,27.98,SW,226,0.0,6.0,77,0.00,,,9.64,WUHU216DAVISWMX,2013-06-18 20:03:00,
2013-06-18 16:08:00,64.1,57.9,27.98,WSW,243,4.0,5.0,80,0.00,,,9.64,WUHU216DAVISWMX,2013-06-18 20:08:00,
2013-06-18 16:13:00,63.1,57.2,27.98,SW,230,0.0,5.0,81,0.00,,,9.64,WUHU216DAVISWMX,2013-06-18 20:13:00,
2013-06-18 16:18:00,63.7,58.1,27.98,SSW,208,0.0,6.0,82,0.00,,,9.64,WUHU216DAVISWMX,2013-06-18 20:18:00,
2013-06-18 16:23:00,64.2,59.0,27.98,SSW,209,0.0,6.0,83,0.00,,,9.64,WUHU216DAVISWMX,2013-06-18 20:23:00,
2013-06-18 16:28:00,64.4,58.8,27.98,SSW,210,0.0,3.0,82,0.00,,,9.64,WUHU216DAVISWMX,2013-06-18 20:28:00,
2013-06-18 16:33:00,64.4,58.8,27.98,SW,235,0.0,7.0,82,0.00,,,9.64,WUHU216DAVISWMX,2013-06-18 20:33:00,
2013-06-18 16:38:00,64.6,59.0,27.98,SW,230,0.0,7.0,82,0.00,,,9.64,WUHU216DAVISWMX,2013-06-18 20:38:00,
2013-06-18 16:43:00,64.7,59.5,27.98,SW,229,0.0,5.0,83,0.00,,,9.64,WUHU216DAVISWMX,2013-06-18 20:43:00,
2013-06-18 16:48:00,64.6,59.4,27.98,SW,229,0.0,0.0,83,0.00,,,9.64,WUHU216DAVISWMX,2013-06-18 20:48:00,
2013-06-18 16:53:00,64.3,59.1,27.98,SW,221,2.0,6.0,83,0.00,,,9.64,WUHU216DAVISWMX,2013-06-18 20:53:00,
2013-06-18 16:58:00,64.0,59.1,27.98,SW,221,0.0,6.0,84,0.00,,,9.64,WUHU216DAVISWMX,2013-06-18 20:58:00,
2013-06-18 17:03:00,63.6,59.0,27.98,SW,216,0.0,5.0,85,0.00,,,9.64,WUHU216DAVISWMX,2013-06-18 21:03:00,
2013-06-18 17:08:00,63.2,58.9,27.98,SW,216,0.0,5.0,86,0.00,,,9.64,WUHU216DAVISWMX,2013-06-18 21:08:00,
2013-06-18 17:13:00,63.3,59.0,27.98,SW,216,0.0,1.0,86,0.00,,,9.64,WUHU216DAVISWMX,2013-06-18 21:13:00,
2013-06-18 17:18:00,63.4,59.1,27.98,SW,216,0.0,1.0,86,0.00,,,9.64,WUHU216DAVISWMX,2013-06-18 21:18:00,
2013-06-18 17:23:00,63.3,59.0,27.98,SW,216,0.0,0.0,86,0.00,,,9.64,WUHU216DAVISWMX,2013-06-18 21:23:00,
2013-06-18 17:28:00,63.6,58.7,27.97,SW,216,0.0,1.0,84,0.00,,,9.64,WUHU216DAVISWMX,2013-06-18 21:28:00,
2013-06-18 17:33:00,63.9,58.3,27.97,SW,217,0.0,1.0,82,0.00,,,9.64,WUHU216DAVISWMX,2013-06-18 21:33:00,
2013-06-18 17:38:00,63.9,58.3,27.97,SW,217,0.0,1.0,82,0.00,,,9.64,WUHU216DAVISWMX,2013-06-18 21:38:00,
2013-06-18 17:43:00,61.6,56.1,27.97,SW,220,0.0,1.0,82,0.00,,,9.64,WUHU216DAVISWMX,2013-06-18 21:43:00,
2013-06-18 17:48:00,61.7,55.5,27.97,WSW,258,1.0,5.0,80,0.00,,,9.64,WUHU216DAVISWMX,2013-06-18 21:48:00,
2013-06-18 17:53:00,63.0,55.8,27.98,WNW,302,0.0,7.0,77,0.00,,,9.64,WUHU216DAVISWMX,2013-06-18 21:53:00,
2013-06-18 17:58:00,62.7,55.5,27.97,NW,307,0.0,8.0,77,0.00,,,9.64,WUHU216DAVISWMX,2013-06-18 21:58:00,
2013-06-18 18:03:00,63.0,55.8,27.98,NW,308,4.0,8.0,77,0.00,,,9.64,WUHU216DAVISWMX,2013-06-18 22:03:00,
2013-06-18 18:08:00,62.9,55.7,27.97,NW,305,4.0,8.0,77,0.00,,,9.64,WUHU216DAVISWMX,2013-06-18 22:08:00,
2013-06-18 18:13:00,62.8,55.9,27.97,NW,309,0.0,8.0,78,0.00,,,9.64,WUHU216DAVISWMX,2013-06-18 22:13:00,
2013-06-18 18:18:00,62.7,55.5,27.98,WNW,293,0.0,10.0,77,0.00,,,9.64,WUHU216DAVISWMX,2013-06-18 22:18:00,
2013-06-18 18:23:00,62.6,55.7,27.98,NW,311,5.0,10.0,78,0.00,,,9.64,WUHU216DAVISWMX,2013-06-18 22:23:00,
2013-06-18 18:28:00,62.3,55.8,27.98,NW,311,0.0,7.0,79,0.00,,,9.64,WUHU216DAVISWMX,2013-06-18 22:28:00,
2013-06-18 18:33:00,61.8,55.3,27.99,West,281,9.0,9.0,79,0.00,,,9.64,WUHU216DAVISWMX,2013-06-18 22:33:00,
2013-06-18 18:38:00,61.6,55.4,27.99,NW,309,0.0,10.0,80,0.00,,,9.64,WUHU216DAVISWMX,2013-06-18 22:38:00,
2013-06-18 18:43:00,61.7,55.9,28.00,WNW,295,7.0,16.0,81,0.00,,,9.64,WUHU216DAVISWMX,2013-06-18 22:43:00,
2013-06-18 18:48:00,60.3,55.8,28.00,NW,315,1.0,16.0,85,0.01,,,9.65,WUHU216DAVISWMX,2013-06-18 22:48:00,
2013-06-18 18:53:00,58.4,54.5,28.00,NW,305,9.0,16.0,87,0.05,,,9.69,WUHU216DAVISWMX,2013-06-18 22:53:00,
2013-06-18 18:58:00,56.7,53.5,28.00,NW,322,9.0,16.0,89,0.07,,,9.71,WUHU216DAVISWMX,2013-06-18 22:58:00,
2013-06-18 19:03:00,55.2,52.3,28.01,NW,311,0.0,14.0,90,0.09,,,9.73,WUHU216DAVISWMX,2013-06-18 23:03:00,
2013-06-18 19:08:00,55.0,52.7,28.00,WNW,297,0.0,14.0,92,0.09,,,9.73,WUHU216DAVISWMX,2013-06-18 23:08:00,
2013-06-18 19:13:00,54.6,52.0,28.00,NW,325,0.0,9.0,91,0.09,,,9.73,WUHU216DAVISWMX,2013-06-18 23:13:00,
2013-06-18 19:18:00,55.6,53.3,28.01,WNW,295,4.0,9.0,92,0.10,,,9.74,WUHU216DAVISWMX,2013-06-18 23:18:00,
2013-06-18 19:23:00,55.1,52.8,28.00,WNW,301,0.0,5.0,92,0.10,,,9.74,WUHU216DAVISWMX,2013-06-18 23:23:00,
2013-06-18 19:28:00,54.8,52.8,28.01,WNW,302,0.0,5.0,93,0.10,,,9.74,WUHU216DAVISWMX,2013-06-18 23:28:00,
2013-06-18 19:33:00,54.2,52.2,28.01,WNW,302,0.0,0.0,93,0.10,,,9.74,WUHU216DAVISWMX,2013-06-18 23:33:00,
2013-06-18 19:38:00,53.8,51.8,28.01,WNW,302,0.0,0.0,93,0.10,,,9.74,WUHU216DAVISWMX,2013-06-18 23:38:00,
2013-06-18 19:43:00,55.0,53.3,28.01,WNW,302,0.0,0.0,94,0.10,,,9.74,WUHU216DAVISWMX,2013-06-18 23:43:00,
2013-06-18 19:48:00,55.1,53.1,28.01,WNW,301,0.0,1.0,93,0.09,,,9.74,WUHU216DAVISWMX,2013-06-18 23:48:00,
2013-06-18 19:53:00,54.5,53.1,28.01,WNW,302,0.0,1.0,95,0.05,,,9.74,WUHU216DAVISWMX,2013-06-18 23:53:00,
2013-06-18 19:58:00,54.8,53.4,28.01,WNW,302,0.0,0.0,95,0.03,,,9.74,WUHU216DAVISWMX,2013-06-18 23:58:00,
2013-06-18 20:03:00,55.3,54.1,28.01,WNW,301,0.0,0.0,96,0.01,,,9.74,WUHU216DAVISWMX,2013-06-19 00:03:00,
2013-06-18 20:08:00,55.6,54.4,28.01,WNW,301,0.0,0.0,96,0.01,,,9.74,WUHU216DAVISWMX,2013-06-19 00:08:00,
2013-06-18 20:13:00,55.6,54.4,28.01,WNW,301,0.0,0.0,96,0.01,,,9.74,WUHU216DAVISWMX,2013-06-19 00:13:00,
2013-06-18 20:18:00,55.2,54.3,28.01,WNW,301,0.0,0.0,97,0.00,,,9.74,WUHU216DAVISWMX,2013-06-19 00:18:00,
2013-06-18 20:23:00,55.3,54.4,28.02,WNW,302,0.0,0.0,97,0.00,,,9.74,WUHU216DAVISWMX,2013-06-19 00:23:00,
2013-06-18 20:29:00,55.2,54.3,28.02,WNW,302,0.0,0.0,97,0.00,,,9.74,WUHU216DAVISWMX,2013-06-19 00:29:00,
2013-06-18 20:34:00,55.1,54.2,28.02,WNW,302,0.0,0.0,97,0.00,,,9.74,WUHU216DAVISWMX,2013-06-19 00:34:00,
2013-06-18 20:39:00,55.1,54.2,28.02,WNW,302,0.0,0.0,97,0.00,,,9.74,WUHU216DAVISWMX,2013-06-19 00:39:00,
2013-06-18 20:44:00,55.1,54.2,28.02,WNW,302,0.0,0.0,97,0.00,,,9.74,WUHU216DAVISWMX,2013-06-19 00:44:00,
2013-06-18 20:49:00,54.5,53.9,28.03,WNW,302,0.0,1.0,98,0.00,,,9.74,WUHU216DAVISWMX,2013-06-19 00:49:00,
2013-06-18 20:54:00,53.9,53.3,28.03,WNW,302,0.0,1.0,98,0.00,,,9.74,WUHU216DAVISWMX,2013-06-19 00:54:00,
2013-06-18 20:59:00,53.9,53.3,28.03,WNW,302,0.0,0.0,98,0.00,,,9.74,WUHU216DAVISWMX,2013-06-19 00:59:00,
2013-06-18 21:04:00,54.8,54.5,28.02,WNW,301,0.0,0.0,99,0.00,,,9.74,WUHU216DAVISWMX,2013-06-19 01:04:00,
2013-06-18 21:09:00,54.7,54.4,28.02,WNW,301,0.0,0.0,99,0.00,,,9.74,WUHU216DAVISWMX,2013-06-19 01:09:00,
2013-06-18 21:14:00,54.4,54.4,28.02,WNW,301,0.0,0.0,100,0.00,,,9.74,WUHU216DAVISWMX,2013-06-19 01:14:00,
2013-06-18 21:19:00,54.0,53.7,28.03,WNW,301,0.0,0.0,99,0.00,,,9.74,WUHU216DAVISWMX,2013-06-19 01:19:00,
2013-06-18 21:24:00,54.0,54.0,28.03,WNW,302,0.0,0.0,100,0.00,,,9.74,WUHU216DAVISWMX,2013-06-19 01:24:00,
2013-06-18 21:29:00,54.2,54.2,28.03,WNW,301,0.0,0.0,100,0.00,,,9.74,WUHU216DAVISWMX,2013-06-19 01:29:00,
2013-06-18 21:34:00,53.9,53.6,28.03,WNW,301,3.0,3.0,99,0.00,,,9.74,WUHU216DAVISWMX,2013-06-19 01:34:00,
2013-06-18 21:39:00,53.5,53.5,28.03,WNW,302,0.0,3.0,100,0.00,,,9.74,WUHU216DAVISWMX,2013-06-19 01:39:00,
2013-06-18 21:44:00,53.7,53.7,28.03,WNW,302,0.0,3.0,100,0.00,,,9.74,WUHU216DAVISWMX,2013-06-19 01:44:00,
2013-06-18 21:49:00,53.3,53.3,28.04,WNW,302,0.0,0.0,100,0.00,,,9.74,WUHU216DAVISWMX,2013-06-19 01:49:00,
2013-06-18 21:54:00,53.1,53.1,28.04,WNW,302,0.0,0.0,100,0.00,,,9.74,WUHU216DAVISWMX,2013-06-19 01:54:00,
2013-06-18 21:59:00,52.9,52.9,28.04,WNW,302,0.0,0.0,100,0.00,,,9.74,WUHU216DAVISWMX,2013-06-19 01:59:00,
2013-06-18 22:04:00,52.6,52.6,28.05,WNW,302,0.0,0.0,100,0.00,,,9.74,WUHU216DAVISWMX,2013-06-19 02:04:00,
2013-06-18 22:09:00,51.8,51.8,28.05,WNW,302,0.0,0.0,100,0.00,,,9.74,WUHU216DAVISWMX,2013-06-19 02:09:00,
2013-06-18 22:14:00,53.5,53.5,28.05,WNW,301,0.0,0.0,100,0.00,,,9.74,WUHU216DAVISWMX,2013-06-19 02:14:00,
2013-06-18 22:19:00,53.9,53.9,28.04,WNW,301,0.0,0.0,100,0.00,,,9.74,WUHU216DAVISWMX,2013-06-19 02:19:00,
2013-06-18 22:24:00,53.8,53.8,28.05,WNW,301,0.0,0.0,100,0.00,,,9.74,WUHU216DAVISWMX,2013-06-19 02:24:00,
2013-06-18 22:29:00,53.6,53.6,28.04,WNW,301,0.0,0.0,100,0.00,,,9.74,WUHU216DAVISWMX,2013-06-19 02:29:00,
2013-06-18 22:34:00,53.6,53.6,28.05,WNW,301,0.0,0.0,100,0.00,,,9.74,WUHU216DAVISWMX,2013-06-19 02:34:00,
2013-06-18 22:39:00,53.6,53.6,28.05,WNW,301,0.0,0.0,100,0.00,,,9.74,WUHU216DAVISWMX,2013-06-19 02:39:00,
2013-06-18 22:44:00,53.6,53.6,28.05,WNW,301,0.0,0.0,100,0.00,,,9.74,WUHU216DAVISWMX,2013-06-19 02:44:00,